Starlink 11083

operational
NORAD ID: 59424 Int'l Des: 2024-065 Owner: SPXS Country: US Constellation: starlink
LEOCIRCULAR

Über Starlink 11083

Beschreibung wird geladen...

Live-Position

3D-Globus wird geladen...

Nächste Überflüge

Höhenverlauf

Altitude vs Time

uPlot chart will show altitude changes over time

Zweizeiliger Elementsatz

1 59424U 24065D 25304.45132111 -.00000255 00000-0 27572-5 0 9994
2 59424 53.1590 11.0649 0001273 111.8311 248.2843 15.69708435 91176
Epoch: 31. Okt. 2025 • Age: 17 hours

Aktueller Status

Höhe 365.5 km
Geschwindigkeit 7.70 km/s
Subsatellitenpunkt 53.31°N, 4.56°W
Startdatum 7. Apr. 2024
Alter 1.5 years
Typ internet

Technische Details

Klassifizierung Payload
Masse 960.00 kg
Trockenmasse 910.00 kg
Gesamtmasse 960.00 kg
Länge 0.30 m
Durchmesser 4.10 m
Spannweite 29.00 m
Form Box + pan
Hersteller SPXS
Bus-Typ Starlink V2MD
Phasenstatus In Orbit
Besitzer/Staat SPXS/US

Große Konstellationen

Loading constellations...